Home   Weather   Brussels   Past weeks

Flag for Belgium Past Weather in Brussels, Belgium — Yesterday and Last 2 Weeks

Now
39 °F

Clear.


Feels Like: 36 °F
Forecast: 40 / 64 °F
Wind: 5 mph from Southwest

Location: Brussels National Airport

Current Time: Apr 29, 2017 at 2:19:00 am

Latest Report: Apr 29, 2017 at 1:20 am


Visibility: 10 mi

Pressure: 30.07 "Hg

Humidity: 93%

Dew Point: 37 °F

Location of BrusselsLocation

Past Weather in Brussels — Graph

°F

Brussels Temperature Yesterday

Maximum temperature yesterday: 52 °F (at 3:50 pm)
Minimum temperature yesterday: 39 °F (at 12:20 am)
Average temperature yesterday: 45 °F

High & Low Weather Summary for the Past Weeks

 TemperatureHumidityPressure
High59 °F (Apr 24, 3:50 pm)94% (Apr 15, 8:20 am)30.66 "Hg (Apr 15, 8:20 am)
Low27 °F (Apr 20, 5:50 am)30% (Apr 20, 6:20 pm)29.77 "Hg (Apr 24, 11:50 pm)
Average45 °F69%30.17 "Hg
* Reported Apr 14 12:20 am — Apr 29 12:50 am, Brussels, Weather by CustomWeather, © 2017

Note: Actual official high and low records may vary slightly from our data, if they occured in-between our weather recording intervals... More about our weather records

Advertising

Brussels Weather History for the Previous 24 Hours

Scroll right to see more
 ConditionsComfort  
Time TempWeatherWind HumidityBarometerVisibility
12:50 am
Sat, Apr 29
39 °FClear.3 mph87%30.07 "Hg10 mi
12:20 am39 °FPassing clouds.3 mph93%30.07 "HgN/A
11:50 pm
Fri, Apr 28
39 °FClear.2 mph93%30.07 "Hg10 mi
11:20 pm41 °FClear.2 mph81%30.04 "Hg10 mi
10:50 pm43 °FClear.3 mph76%30.04 "Hg10 mi
10:20 pm43 °FPassing clouds.3 mph81%30.04 "HgN/A
9:50 pm43 °FPassing clouds.6 mph81%30.04 "HgN/A
9:20 pm45 °FPassing clouds.6 mph71%30.04 "HgN/A
8:50 pm45 °FPassing clouds.6 mph71%30.04 "HgN/A
8:20 pm48 °FPassing clouds.10 mph62%30.01 "HgN/A
7:50 pm48 °FPassing clouds.9 mph62%30.01 "HgN/A
7:20 pm50 °FPassing clouds.7 mph62%30.01 "HgN/A
6:50 pm50 °FPassing clouds.10 mph58%30.01 "HgN/A
6:20 pm50 °FPassing clouds.10 mph58%30.01 "HgN/A
5:50 pm50 °FPassing clouds.10 mph62%30.01 "HgN/A
5:20 pm50 °FPassing clouds.12 mph62%29.98 "HgN/A
4:50 pm50 °FPassing clouds.10 mph67%29.98 "HgN/A
4:20 pm52 °FPassing clouds.14 mph58%29.98 "HgN/A
3:50 pm52 °FScattered clouds.12 mph58%29.98 "HgN/A
3:20 pm50 °FScattered clouds.10 mph62%29.98 "HgN/A
2:50 pm50 °FPassing clouds.12 mph67%29.98 "HgN/A
2:20 pm48 °FScattered clouds.9 mph76%29.98 "HgN/A
1:50 pm50 °FBroken clouds.6 mph67%29.98 "HgN/A
1:20 pm48 °FScattered showers. Broken clouds.6 mph71%29.98 "HgN/A
12:50 pm46 °FSprinkles. Broken clouds.15 mph71%29.98 "HgN/A
12:20 pm50 °FScattered clouds.3 mph67%29.95 "HgN/A
11:50 am46 °FPartly sunny.5 mph76%29.98 "HgN/A
11:20 am45 °FScattered showers. Scattered clouds.8 mph81%29.98 "Hg6 mi
10:50 am46 °FSprinkles. Broken clouds.9 mph71%29.95 "Hg6 mi
10:20 am46 °FPartly sunny.7 mph82%29.95 "Hg6 mi
9:50 am46 °FBroken clouds.8 mph82%29.95 "Hg6 mi
9:20 am46 °FBroken clouds.7 mph82%29.95 "Hg6 mi
8:50 am45 °FScattered clouds.9 mph81%29.95 "Hg6 mi
8:20 am45 °FScattered clouds.9 mph81%29.95 "Hg6 mi
7:50 am43 °FScattered clouds.6 mph81%29.95 "Hg6 mi
7:20 am43 °FPassing clouds.7 mph81%29.95 "Hg6 mi
6:50 am43 °FPassing clouds.8 mph81%29.95 "HgN/A
6:20 am41 °FLight rain. Partly cloudy.7 mph81%29.95 "HgN/A
5:50 am43 °FLight rain. Partly cloudy.9 mph76%29.95 "HgN/A
5:20 am41 °FLight rain. Partly cloudy.7 mph76%29.95 "HgN/A
4:50 am41 °FPassing clouds.8 mph76%29.95 "HgN/A
4:20 am41 °FLight rain. Passing clouds.8 mph76%29.95 "HgN/A
3:50 am41 °FLight rain. Passing clouds.5 mph81%29.98 "HgN/A
3:20 am41 °FPassing clouds.6 mph76%29.98 "HgN/A
2:50 am41 °FPassing clouds.6 mph76%29.98 "HgN/A
2:20 am41 °FPassing clouds.6 mph76%29.98 "HgN/A
Weather by CustomWeather, © 2017

See weather overviewHow to use our weather pages